Time,TemperatureF,DewpointF,PressureIn,WindDirection,WindDirectionDegrees,WindSpeedMPH,WindSpeedGustMPH,Humidity,HourlyPrecipIn,Conditions,Clouds,dailyrainin,SoftwareType,DateUTC
2013-07-01 00:00:00,69.3,65.3,29.81,NNW,329,1.5,1.5,87,0.00,,,0.00,VWS V14.01,2013-07-01 04:00:00,
2013-07-01 00:01:00,69.4,65.4,29.81,NNW,328,1.5,1.5,87,0.00,,,0.00,VWS V14.01,2013-07-01 04:01:00,
2013-07-01 00:06:00,69.4,65.4,29.81,NW,322,1.5,1.5,87,0.00,,,0.00,VWS V14.01,2013-07-01 04:06:00,
2013-07-01 00:11:00,69.5,65.1,29.81,NW,321,1.5,1.5,86,0.00,,,0.00,VWS V14.01,2013-07-01 04:11:00,
2013-07-01 00:16:00,69.3,65.3,29.82,NW,321,1.5,1.5,87,0.00,,,0.00,VWS V14.01,2013-07-01 04:16:00,
2013-07-01 00:21:00,69.0,65.0,29.82,NW,321,1.5,1.5,87,0.00,,,0.00,VWS V14.01,2013-07-01 04:21:00,
2013-07-01 00:26:00,68.9,65.2,29.82,NW,321,1.5,1.5,88,0.00,,,0.00,VWS V14.01,2013-07-01 04:26:00,
2013-07-01 00:31:00,68.7,65.0,29.81,NNW,329,3.0,3.0,88,0.00,,,0.00,VWS V14.01,2013-07-01 04:31:00,
2013-07-01 00:36:00,68.6,64.9,29.81,NNW,341,1.5,3.0,88,0.00,,,0.00,VWS V14.01,2013-07-01 04:36:00,
2013-07-01 00:41:00,68.4,65.0,29.81,NNW,340,1.5,1.5,89,0.00,,,0.00,VWS V14.01,2013-07-01 04:41:00,
2013-07-01 00:46:00,68.1,64.7,29.81,NNW,339,1.5,1.5,89,0.00,,,0.00,VWS V14.01,2013-07-01 04:46:00,
2013-07-01 00:51:00,67.8,64.4,29.81,NNW,339,1.5,1.5,89,0.00,,,0.00,VWS V14.01,2013-07-01 04:51:00,
2013-07-01 00:56:00,67.6,64.6,29.82,NNW,336,1.5,1.5,90,0.00,,,0.00,VWS V14.01,2013-07-01 04:56:00,
2013-07-01 01:01:00,67.4,64.4,29.82,NNW,336,1.5,1.5,90,0.00,,,0.00,VWS V14.01,2013-07-01 05:01:00,
2013-07-01 01:06:00,67.3,64.6,29.82,NNW,337,1.5,1.5,91,0.00,,,0.00,VWS V14.01,2013-07-01 05:06:00,
2013-07-01 01:11:00,67.1,64.4,29.82,NNW,337,1.5,1.5,91,0.00,,,0.00,VWS V14.01,2013-07-01 05:11:00,
2013-07-01 01:16:00,67.0,64.3,29.82,NNW,337,1.5,3.0,91,0.00,,,0.00,VWS V14.01,2013-07-01 05:16:00,
2013-07-01 01:21:00,67.0,64.6,29.82,NNW,344,1.5,3.0,92,0.00,,,0.00,VWS V14.01,2013-07-01 05:21:00,
2013-07-01 01:26:00,67.0,64.3,29.82,NNW,343,1.5,1.5,91,0.00,,,0.00,VWS V14.01,2013-07-01 05:26:00,
2013-07-01 01:31:00,66.9,64.2,29.82,NNW,344,1.5,1.5,91,0.00,,,0.00,VWS V14.01,2013-07-01 05:31:00,
2013-07-01 01:36:00,66.7,64.0,29.82,NNW,344,1.5,1.5,91,0.00,,,0.00,VWS V14.01,2013-07-01 05:36:00,
2013-07-01 01:41:00,66.7,64.3,29.82,NNW,328,1.5,3.0,92,0.00,,,0.00,VWS V14.01,2013-07-01 05:41:00,
2013-07-01 01:46:00,66.7,64.3,29.82,NNW,329,1.5,1.5,92,0.00,,,0.00,VWS V14.01,2013-07-01 05:46:00,
2013-07-01 01:51:00,66.6,64.2,29.82,NNW,329,1.5,1.5,92,0.00,,,0.00,VWS V14.01,2013-07-01 05:51:00,
2013-07-01 01:56:00,66.5,64.4,29.82,NE,41,1.5,3.0,93,0.00,,,0.00,VWS V14.01,2013-07-01 05:56:00,
2013-07-01 02:01:00,66.5,64.4,29.82,NE,44,3.0,4.5,93,0.00,,,0.00,VWS V14.01,2013-07-01 06:01:00,
2013-07-01 02:06:00,66.4,64.3,29.82,NE,42,3.0,4.5,93,0.00,,,0.00,VWS V14.01,2013-07-01 06:06:00,
2013-07-01 02:11:00,66.2,64.1,29.82,NE,42,1.5,1.5,93,0.00,,,0.00,VWS V14.01,2013-07-01 06:11:00,
2013-07-01 02:16:00,66.1,64.0,29.82,NE,42,4.5,4.5,93,0.00,,,0.00,VWS V14.01,2013-07-01 06:16:00,
2013-07-01 02:21:00,66.0,63.9,29.82,NE,42,1.5,3.0,93,0.00,,,0.00,VWS V14.01,2013-07-01 06:21:00,
2013-07-01 02:26:00,66.0,64.2,29.81,NE,44,1.5,1.5,94,0.00,,,0.00,VWS V14.01,2013-07-01 06:26:00,
2013-07-01 02:31:00,66.0,64.2,29.81,NE,44,1.5,3.0,94,0.00,,,0.00,VWS V14.01,2013-07-01 06:31:00,
2013-07-01 02:35:00,65.9,64.1,29.81,NE,44,1.5,1.5,94,0.00,,,0.00,VWS V14.01,2013-07-01 06:35:00,
2013-07-01 02:40:00,66.0,64.2,29.81,NNW,331,1.5,1.5,94,0.00,,,0.00,VWS V14.01,2013-07-01 06:40:00,
2013-07-01 02:45:00,65.9,64.1,29.81,NNW,331,1.5,1.5,94,0.00,,,0.00,VWS V14.01,2013-07-01 06:45:00,
2013-07-01 02:50:00,65.9,64.1,29.81,NNW,331,1.5,1.5,94,0.00,,,0.00,VWS V14.01,2013-07-01 06:50:00,
2013-07-01 02:55:00,65.8,64.0,29.81,NNW,331,1.5,1.5,94,0.00,,,0.00,VWS V14.01,2013-07-01 06:55:00,
2013-07-01 03:00:00,65.6,63.8,29.81,NNW,331,1.5,1.5,94,0.00,,,0.00,VWS V14.01,2013-07-01 07:00:00,
2013-07-01 03:05:00,65.6,63.8,29.81,NNW,331,1.5,1.5,94,0.00,,,0.00,VWS V14.01,2013-07-01 07:05:00,
2013-07-01 03:10:00,65.6,64.1,29.81,NNW,331,1.5,1.5,95,0.00,,,0.00,VWS V14.01,2013-07-01 07:10:00,
2013-07-01 03:15:00,65.6,64.1,29.81,NNW,331,1.5,1.5,95,0.00,,,0.00,VWS V14.01,2013-07-01 07:15:00,
2013-07-01 03:20:00,65.6,64.1,29.81,NNW,331,1.5,1.5,95,0.00,,,0.00,VWS V14.01,2013-07-01 07:20:00,
2013-07-01 03:25:00,65.7,64.2,29.81,NNW,331,1.5,1.5,95,0.00,,,0.00,VWS V14.01,2013-07-01 07:25:00,
2013-07-01 03:30:00,65.7,64.2,29.81,NNW,333,1.5,1.5,95,0.00,,,0.00,VWS V14.01,2013-07-01 07:30:00,
2013-07-01 03:35:00,65.8,64.3,29.81,NNW,337,1.5,1.5,95,0.00,,,0.00,VWS V14.01,2013-07-01 07:35:00,
2013-07-01 03:40:00,65.8,64.3,29.81,NNW,337,1.5,1.5,95,0.00,,,0.00,VWS V14.01,2013-07-01 07:40:00,
2013-07-01 03:45:00,65.7,64.2,29.81,NNW,337,1.5,1.5,95,0.00,,,0.00,VWS V14.01,2013-07-01 07:45:00,
2013-07-01 03:50:00,65.6,64.1,29.81,NNW,346,1.5,1.5,95,0.00,,,0.00,VWS V14.01,2013-07-01 07:50:00,
2013-07-01 03:55:00,65.6,64.1,29.81,North,4,1.5,1.5,95,0.00,,,0.00,VWS V14.01,2013-07-01 07:55:00,
2013-07-01 04:00:00,65.6,64.1,29.82,North,6,1.5,4.5,95,0.00,,,0.00,VWS V14.01,2013-07-01 08:00:00,
2013-07-01 04:05:00,65.6,64.1,29.82,NE,51,1.5,4.5,95,0.00,,,0.00,VWS V14.01,2013-07-01 08:05:00,
2013-07-01 04:10:00,65.5,64.0,29.82,NE,51,1.5,1.5,95,0.00,,,0.00,VWS V14.01,2013-07-01 08:10:00,
2013-07-01 04:15:00,65.5,64.3,29.82,NE,51,3.0,3.0,96,0.00,,,0.00,VWS V14.01,2013-07-01 08:15:00,
2013-07-01 04:20:00,65.5,64.3,29.82,NE,47,4.5,4.5,96,0.00,,,0.00,VWS V14.01,2013-07-01 08:20:00,
2013-07-01 04:25:00,65.5,64.3,29.81,NE,49,1.5,3.0,96,0.00,,,0.00,VWS V14.01,2013-07-01 08:25:00,
2013-07-01 04:30:00,65.5,64.3,29.81,NNE,21,1.5,3.0,96,0.00,,,0.00,VWS V14.01,2013-07-01 08:30:00,
2013-07-01 04:35:00,65.5,64.3,29.81,NNE,21,1.5,1.5,96,0.00,,,0.00,VWS V14.01,2013-07-01 08:35:00,
2013-07-01 04:40:00,65.5,64.3,29.81,NE,35,3.0,3.0,96,0.00,,,0.00,VWS V14.01,2013-07-01 08:40:00,
2013-07-01 04:45:00,65.6,64.4,29.81,NE,41,3.0,4.5,96,0.00,,,0.00,VWS V14.01,2013-07-01 08:45:00,
2013-07-01 04:50:00,65.6,64.4,29.81,NE,41,1.5,1.5,96,0.00,,,0.00,VWS V14.01,2013-07-01 08:50:00,
2013-07-01 04:55:00,65.5,64.3,29.82,NNE,32,1.5,1.5,96,0.00,,,0.00,VWS V14.01,2013-07-01 08:55:00,
2013-07-01 05:00:00,65.4,64.2,29.82,NNE,32,1.5,1.5,96,0.00,,,0.00,VWS V14.01,2013-07-01 09:00:00,
2013-07-01 05:05:00,65.4,64.2,29.82,NE,37,1.5,3.0,96,0.00,,,0.00,VWS V14.01,2013-07-01 09:05:00,
2013-07-01 05:10:00,65.4,64.2,29.82,NE,46,1.5,4.5,96,0.00,,,0.00,VWS V14.01,2013-07-01 09:10:00,
2013-07-01 05:15:00,65.4,64.2,29.82,NE,46,1.5,3.0,96,0.00,,,0.00,VWS V14.01,2013-07-01 09:15:00,
2013-07-01 05:20:00,65.3,64.1,29.82,NE,47,1.5,1.5,96,0.00,,,0.00,VWS V14.01,2013-07-01 09:20:00,
2013-07-01 05:25:00,65.3,64.1,29.82,NE,40,1.5,3.0,96,0.00,,,0.00,VWS V14.01,2013-07-01 09:25:00,
2013-07-01 05:30:00,65.3,64.1,29.82,NE,41,1.5,3.0,96,0.00,,,0.00,VWS V14.01,2013-07-01 09:30:00,
2013-07-01 05:35:00,65.2,64.0,29.82,NE,40,1.5,1.5,96,0.00,,,0.00,VWS V14.01,2013-07-01 09:35:00,
2013-07-01 05:40:00,65.2,64.0,29.82,NE,44,3.0,4.5,96,0.00,,,0.00,VWS V14.01,2013-07-01 09:40:00,
2013-07-01 05:45:00,65.3,64.1,29.82,NE,45,3.0,3.0,96,0.00,,,0.00,VWS V14.01,2013-07-01 09:45:00,
2013-07-01 05:50:00,65.3,64.1,29.83,NE,44,1.5,1.5,96,0.00,,,0.00,VWS V14.01,2013-07-01 09:50:00,
2013-07-01 05:55:00,65.3,64.1,29.83,NE,44,1.5,1.5,96,0.00,,,0.00,VWS V14.01,2013-07-01 09:55:00,
2013-07-01 06:00:00,65.3,64.1,29.83,NNE,24,1.5,1.5,96,0.00,,,0.00,VWS V14.01,2013-07-01 10:00:00,
2013-07-01 06:05:00,65.4,64.2,29.83,NNE,25,1.5,3.0,96,0.00,,,0.00,VWS V14.01,2013-07-01 10:05:00,
2013-07-01 06:10:00,65.4,64.2,29.83,NE,39,0.0,0.0,96,0.00,,,0.00,VWS V14.01,2013-07-01 10:10:00,
2013-07-01 06:15:00,65.5,64.3,29.83,NE,39,0.0,0.0,96,0.00,,,0.00,VWS V14.01,2013-07-01 10:15:00,
2013-07-01 06:20:00,65.5,64.3,29.83,NE,40,0.0,0.0,96,0.00,,,0.00,VWS V14.01,2013-07-01 10:20:00,
2013-07-01 06:25:00,65.5,64.3,29.83,NE,39,0.0,0.0,96,0.00,,,0.00,VWS V14.01,2013-07-01 10:25:00,
2013-07-01 06:30:00,65.5,64.3,29.83,NE,40,0.0,0.0,96,0.00,,,0.00,VWS V14.01,2013-07-01 10:30:00,
2013-07-01 06:35:00,65.5,64.3,29.83,NE,40,0.0,0.0,96,0.00,,,0.00,VWS V14.01,2013-07-01 10:35:00,
2013-07-01 06:40:00,65.5,64.3,29.84,NE,39,0.0,0.0,96,0.00,,,0.00,VWS V14.01,2013-07-01 10:40:00,
2013-07-01 06:45:00,65.5,64.3,29.84,NE,39,0.0,0.0,96,0.00,,,0.00,VWS V14.01,2013-07-01 10:45:00,
2013-07-01 06:50:00,65.6,64.4,29.84,NE,39,0.0,0.0,96,0.00,,,0.00,VWS V14.01,2013-07-01 10:50:00,
2013-07-01 06:55:00,65.7,64.5,29.85,NE,38,0.0,0.0,96,0.00,,,0.00,VWS V14.01,2013-07-01 10:55:00,
2013-07-01 07:00:00,65.9,65.0,29.84,NNE,21,0.0,1.5,97,0.00,,,0.00,VWS V14.01,2013-07-01 11:00:00,
2013-07-01 07:05:00,66.1,64.9,29.85,NNE,21,0.0,0.0,96,0.00,,,0.00,VWS V14.01,2013-07-01 11:05:00,
2013-07-01 07:10:00,66.1,64.9,29.85,NNE,21,0.0,0.0,96,0.00,,,0.00,VWS V14.01,2013-07-01 11:10:00,
2013-07-01 07:15:00,66.1,64.9,29.85,NNE,23,0.0,0.0,96,0.00,,,0.00,VWS V14.01,2013-07-01 11:15:00,
2013-07-01 07:20:00,66.1,64.9,29.85,NNE,23,0.0,1.5,96,0.00,,,0.00,VWS V14.01,2013-07-01 11:20:00,
2013-07-01 07:25:00,66.1,64.9,29.85,NNE,23,0.0,0.0,96,0.00,,,0.00,VWS V14.01,2013-07-01 11:25:00,
2013-07-01 07:30:00,66.1,64.9,29.85,NNE,29,1.5,1.5,96,0.01,,,0.01,VWS V14.01,2013-07-01 11:30:00,
2013-07-01 07:35:00,66.0,64.8,29.85,NNE,30,1.5,1.5,96,0.01,,,0.01,VWS V14.01,2013-07-01 11:35:00,
2013-07-01 07:40:00,66.0,64.8,29.85,NNE,30,0.0,0.0,96,0.01,,,0.01,VWS V14.01,2013-07-01 11:40:00,
2013-07-01 07:45:00,65.9,64.7,29.85,NE,44,0.0,3.0,96,0.02,,,0.02,VWS V14.01,2013-07-01 11:45:00,
2013-07-01 07:50:00,65.9,64.7,29.85,NE,46,1.5,1.5,96,0.02,,,0.02,VWS V14.01,2013-07-01 11:50:00,
2013-07-01 07:55:00,65.9,64.7,29.84,NE,44,3.0,3.0,96,0.03,,,0.03,VWS V14.01,2013-07-01 11:55:00,
2013-07-01 08:00:00,65.8,64.6,29.84,NE,44,0.0,1.5,96,0.04,,,0.04,VWS V14.01,2013-07-01 12:00:00,
2013-07-01 08:05:00,65.9,65.0,29.85,NE,44,1.5,1.5,97,0.04,,,0.04,VWS V14.01,2013-07-01 12:05:00,
2013-07-01 08:10:00,66.0,65.1,29.84,NE,44,0.0,1.5,97,0.05,,,0.05,VWS V14.01,2013-07-01 12:10:00,
2013-07-01 08:15:00,66.1,65.2,29.84,NE,44,0.0,1.5,97,0.05,,,0.05,VWS V14.01,2013-07-01 12:15:00,
2013-07-01 08:20:00,66.1,65.2,29.84,NE,44,0.0,1.5,97,0.05,,,0.05,VWS V14.01,2013-07-01 12:20:00,
2013-07-01 08:25:00,66.2,65.3,29.84,NE,47,1.5,3.0,97,0.05,,,0.05,VWS V14.01,2013-07-01 12:25:00,
2013-07-01 08:30:00,66.2,65.3,29.84,NE,38,3.0,6.0,97,0.04,,,0.05,VWS V14.01,2013-07-01 12:30:00,
2013-07-01 08:35:00,66.3,65.4,29.84,NE,44,0.0,1.5,97,0.04,,,0.05,VWS V14.01,2013-07-01 12:35:00,
2013-07-01 08:40:00,66.4,65.5,29.85,NE,46,0.0,1.5,97,0.04,,,0.05,VWS V14.01,2013-07-01 12:40:00,
2013-07-01 08:45:00,66.6,65.7,29.85,ENE,78,0.0,4.5,97,0.04,,,0.06,VWS V14.01,2013-07-01 12:45:00,
2013-07-01 08:50:00,66.8,65.9,29.85,ENE,64,0.0,1.5,97,0.04,,,0.06,VWS V14.01,2013-07-01 12:50:00,
2013-07-01 08:55:00,67.1,66.2,29.85,ENE,66,1.5,1.5,97,0.03,,,0.06,VWS V14.01,2013-07-01 12:55:00,
2013-07-01 09:00:00,67.5,66.6,29.85,East,80,1.5,1.5,97,0.02,,,0.06,VWS V14.01,2013-07-01 13:00:00,
2013-07-01 09:05:00,67.6,66.7,29.85,East,85,0.0,0.0,97,0.02,,,0.06,VWS V14.01,2013-07-01 13:05:00,
2013-07-01 09:10:00,68.0,67.1,29.85,ENE,75,0.0,0.0,97,0.01,,,0.06,VWS V14.01,2013-07-01 13:10:00,
2013-07-01 09:15:00,68.1,67.2,29.85,NE,49,0.0,1.5,97,0.01,,,0.06,VWS V14.01,2013-07-01 13:15:00,
2013-07-01 09:20:00,68.5,67.6,29.85,NE,49,0.0,1.5,97,0.01,,,0.06,VWS V14.01,2013-07-01 13:20:00,
2013-07-01 09:25:00,68.8,67.6,29.85,ENE,66,1.5,3.0,96,0.01,,,0.06,VWS V14.01,2013-07-01 13:25:00,
2013-07-01 09:30:00,68.9,67.7,29.85,ENE,66,0.0,0.0,96,0.01,,,0.06,VWS V14.01,2013-07-01 13:30:00,
2013-07-01 09:35:00,69.3,67.8,29.85,NE,56,3.0,3.0,95,0.01,,,0.06,VWS V14.01,2013-07-01 13:35:00,
2013-07-01 09:40:00,69.4,67.6,29.85,ENE,60,1.5,3.0,94,0.01,,,0.06,VWS V14.01,2013-07-01 13:40:00,
2013-07-01 09:45:00,69.5,68.0,29.85,North,7,0.0,3.0,95,0.00,,,0.06,VWS V14.01,2013-07-01 13:45:00,
2013-07-01 09:49:00,69.8,68.3,29.86,North,6,0.0,1.5,95,0.00,,,0.06,VWS V14.01,2013-07-01 13:49:00,
2013-07-01 09:54:00,70.0,68.2,29.85,North,6,0.0,1.5,94,0.00,,,0.06,VWS V14.01,2013-07-01 13:54:00,
2013-07-01 09:59:00,70.3,68.5,29.85,NE,37,0.0,1.5,94,0.00,,,0.06,VWS V14.01,2013-07-01 13:59:00,
2013-07-01 10:04:00,70.5,68.4,29.85,ENE,66,1.5,3.0,93,0.00,,,0.06,VWS V14.01,2013-07-01 14:04:00,
2013-07-01 10:09:00,71.4,69.6,29.85,ENE,65,1.5,3.0,94,0.00,,,0.06,VWS V14.01,2013-07-01 14:09:00,
2013-07-01 10:14:00,72.3,69.5,29.85,NNE,30,1.5,3.0,91,0.00,,,0.06,VWS V14.01,2013-07-01 14:14:00,
2013-07-01 10:19:00,72.7,69.6,29.85,East,99,0.0,0.0,90,0.00,,,0.06,VWS V14.01,2013-07-01 14:19:00,
2013-07-01 10:24:00,73.5,70.1,29.85,NE,46,3.0,3.0,89,0.00,,,0.06,VWS V14.01,2013-07-01 14:24:00,
2013-07-01 10:29:00,73.6,70.2,29.85,ENE,74,1.5,4.5,89,0.00,,,0.06,VWS V14.01,2013-07-01 14:29:00,
2013-07-01 10:34:00,73.7,69.6,29.86,NE,49,0.0,1.5,87,0.00,,,0.06,VWS V14.01,2013-07-01 14:34:00,
2013-07-01 10:39:00,73.9,69.8,29.86,ESE,123,0.0,1.5,87,0.00,,,0.06,VWS V14.01,2013-07-01 14:39:00,
2013-07-01 10:44:00,74.4,69.6,29.86,ENE,61,3.0,4.5,85,0.00,,,0.06,VWS V14.01,2013-07-01 14:44:00,
2013-07-01 10:49:00,74.6,69.4,29.86,SSE,149,1.5,4.5,84,0.00,,,0.06,VWS V14.01,2013-07-01 14:49:00,
2013-07-01 10:54:00,75.0,69.5,29.86,ENE,75,1.5,4.5,83,0.00,,,0.06,VWS V14.01,2013-07-01 14:54:00,
2013-07-01 11:00:00,75.4,69.9,29.87,SSE,148,0.0,1.5,83,0.00,,,0.06,VWS V14.01,2013-07-01 15:00:00,
2013-07-01 11:05:00,75.9,69.3,29.87,SSE,156,1.5,1.5,80,0.00,,,0.06,VWS V14.01,2013-07-01 15:05:00,
2013-07-01 11:10:00,75.2,69.0,29.88,SSE,165,0.0,1.5,81,0.00,,,0.06,VWS V14.01,2013-07-01 15:10:00,
2013-07-01 11:15:00,74.8,69.3,29.88,South,179,1.5,1.5,83,0.00,,,0.06,VWS V14.01,2013-07-01 15:15:00,
2013-07-01 11:20:00,74.6,69.4,29.88,SSE,167,0.0,1.5,84,0.00,,,0.06,VWS V14.01,2013-07-01 15:20:00,
2013-07-01 11:25:00,74.6,70.1,29.88,South,191,1.5,1.5,86,0.00,,,0.06,VWS V14.01,2013-07-01 15:25:00,
2013-07-01 11:30:00,73.9,69.8,29.88,West,260,4.5,4.5,87,0.00,,,0.06,VWS V14.01,2013-07-01 15:30:00,
2013-07-01 11:35:00,72.9,69.1,29.88,SSW,202,9.0,9.0,88,0.00,,,0.06,VWS V14.01,2013-07-01 15:35:00,
2013-07-01 11:40:00,72.3,68.9,29.89,West,271,3.0,3.0,89,0.00,,,0.06,VWS V14.01,2013-07-01 15:40:00,
2013-07-01 11:45:00,71.9,68.5,29.89,WSW,257,10.5,10.5,89,0.00,,,0.06,VWS V14.01,2013-07-01 15:45:00,
2013-07-01 11:50:00,71.7,68.3,29.89,West,265,10.5,10.5,89,0.00,,,0.06,VWS V14.01,2013-07-01 15:50:00,
2013-07-01 11:55:00,71.5,68.4,29.88,NW,319,1.5,1.5,90,0.02,,,0.08,VWS V14.01,2013-07-01 15:55:00,
2013-07-01 12:00:00,71.1,68.3,29.88,West,281,0.0,1.5,91,0.08,,,0.14,VWS V14.01,2013-07-01 16:00:00,
2013-07-01 12:05:00,70.8,68.4,29.88,West,267,3.0,3.0,92,0.11,,,0.17,VWS V14.01,2013-07-01 16:05:00,
2013-07-01 12:10:00,70.7,68.3,29.88,West,271,6.0,6.0,92,0.11,,,0.17,VWS V14.01,2013-07-01 16:10:00,
2013-07-01 12:15:00,70.8,68.7,29.89,SW,224,1.5,1.5,93,0.11,,,0.17,VWS V14.01,2013-07-01 16:15:00,
2013-07-01 12:20:00,71.2,69.1,29.89,WSW,253,4.5,4.5,93,0.11,,,0.17,VWS V14.01,2013-07-01 16:20:00,
2013-07-01 12:25:00,71.5,69.1,29.89,NW,321,1.5,1.5,92,0.11,,,0.17,VWS V14.01,2013-07-01 16:25:00,
2013-07-01 12:30:00,72.4,70.3,29.88,NNE,15,1.5,1.5,93,0.11,,,0.17,VWS V14.01,2013-07-01 16:30:00,
2013-07-01 12:35:00,73.5,70.7,29.88,West,267,7.5,7.5,91,0.11,,,0.17,VWS V14.01,2013-07-01 16:35:00,
2013-07-01 12:40:00,73.8,70.0,29.87,NNE,30,1.5,1.5,88,0.11,,,0.17,VWS V14.01,2013-07-01 16:40:00,
2013-07-01 12:45:00,73.9,69.8,29.87,NNE,23,4.5,4.5,87,0.11,,,0.17,VWS V14.01,2013-07-01 16:45:00,
2013-07-01 12:50:00,73.5,69.7,29.87,NE,50,6.0,6.0,88,0.11,,,0.17,VWS V14.01,2013-07-01 16:50:00,
2013-07-01 12:55:00,73.7,69.3,29.87,NE,38,4.5,4.5,86,0.09,,,0.17,VWS V14.01,2013-07-01 16:55:00,
2013-07-01 13:00:00,74.3,69.2,29.86,North,351,6.0,6.0,84,0.04,,,0.17,VWS V14.01,2013-07-01 17:00:00,
2013-07-01 13:05:00,75.2,70.7,29.86,NNE,24,4.5,4.5,86,0.00,,,0.17,VWS V14.01,2013-07-01 17:05:00,
2013-07-01 13:10:00,75.7,70.5,29.86,NE,47,6.0,6.0,84,0.00,,,0.17,VWS V14.01,2013-07-01 17:10:00,
2013-07-01 13:15:00,75.8,69.2,29.86,NE,52,1.5,1.5,80,0.00,,,0.17,VWS V14.01,2013-07-01 17:15:00,
2013-07-01 13:20:00,76.2,69.2,29.86,NNE,23,6.0,6.0,79,0.00,,,0.17,VWS V14.01,2013-07-01 17:20:00,
2013-07-01 13:25:00,76.5,69.1,29.86,NE,47,4.5,4.5,78,0.00,,,0.17,VWS V14.01,2013-07-01 17:25:00,
2013-07-01 13:30:00,76.8,69.1,29.86,NNE,30,4.5,4.5,77,0.00,,,0.17,VWS V14.01,2013-07-01 17:30:00,
2013-07-01 13:35:00,77.4,70.0,29.85,NNW,330,6.0,6.0,78,0.00,,,0.17,VWS V14.01,2013-07-01 17:35:00,
2013-07-01 13:40:00,77.6,70.6,29.85,NE,34,3.0,3.0,79,0.00,,,0.17,VWS V14.01,2013-07-01 17:40:00,
2013-07-01 13:45:00,77.9,70.5,29.85,NE,42,3.0,3.0,78,0.00,,,0.17,VWS V14.01,2013-07-01 17:45:00,
2013-07-01 13:50:00,78.5,71.4,29.85,NE,49,4.5,4.5,79,0.00,,,0.17,VWS V14.01,2013-07-01 17:50:00,
2013-07-01 13:55:00,77.6,69.1,29.85,North,359,1.5,1.5,75,0.00,,,0.17,VWS V14.01,2013-07-01 17:55:00,
2013-07-01 14:00:00,77.6,69.8,29.85,North,357,6.0,6.0,77,0.00,,,0.17,VWS V14.01,2013-07-01 18:00:00,
2013-07-01 14:05:00,78.0,69.8,29.85,East,99,3.0,3.0,76,0.00,,,0.17,VWS V14.01,2013-07-01 18:05:00,
2013-07-01 14:10:00,78.6,70.8,29.85,ENE,60,3.0,3.0,77,0.00,,,0.17,VWS V14.01,2013-07-01 18:10:00,
2013-07-01 14:15:00,79.0,70.0,29.85,East,92,3.0,3.0,74,0.00,,,0.17,VWS V14.01,2013-07-01 18:15:00,
2013-07-01 14:20:00,79.1,69.7,29.84,SSE,150,0.0,1.5,73,0.00,,,0.17,VWS V14.01,2013-07-01 18:20:00,
2013-07-01 14:25:00,79.6,70.2,29.84,East,79,4.5,4.5,73,0.00,,,0.17,VWS V14.01,2013-07-01 18:25:00,
2013-07-01 14:30:00,79.4,70.0,29.84,East,87,0.0,1.5,73,0.00,,,0.17,VWS V14.01,2013-07-01 18:30:00,
2013-07-01 14:35:00,79.4,70.0,29.84,East,92,3.0,3.0,73,0.00,,,0.17,VWS V14.01,2013-07-01 18:35:00,
2013-07-01 14:40:00,78.8,69.4,29.84,SSE,160,1.5,1.5,73,0.00,,,0.17,VWS V14.01,2013-07-01 18:40:00,
2013-07-01 14:45:00,78.9,68.7,29.84,South,175,0.0,1.5,71,0.00,,,0.17,VWS V14.01,2013-07-01 18:45:00,
2013-07-01 14:50:00,79.0,68.4,29.84,NNE,31,3.0,3.0,70,0.00,,,0.17,VWS V14.01,2013-07-01 18:50:00,
2013-07-01 14:55:00,78.9,68.7,29.84,NNE,32,6.0,6.0,71,0.00,,,0.17,VWS V14.01,2013-07-01 18:55:00,
2013-07-01 15:00:00,79.4,68.8,29.84,NE,39,7.5,7.5,70,0.00,,,0.17,VWS V14.01,2013-07-01 19:00:00,
2013-07-01 15:05:00,79.5,67.6,29.84,ENE,74,3.0,3.0,67,0.00,,,0.17,VWS V14.01,2013-07-01 19:05:00,
2013-07-01 15:10:00,80.0,67.2,29.84,NNE,26,6.0,6.0,65,0.00,,,0.17,VWS V14.01,2013-07-01 19:10:00,
2013-07-01 15:15:00,80.6,69.5,29.83,NNE,30,7.5,7.5,69,0.00,,,0.17,VWS V14.01,2013-07-01 19:15:00,
2013-07-01 15:20:00,80.6,67.3,29.84,NE,49,4.5,4.5,64,0.00,,,0.17,VWS V14.01,2013-07-01 19:20:00,
2013-07-01 15:25:00,80.5,68.1,29.84,ENE,74,13.5,13.5,66,0.00,,,0.17,VWS V14.01,2013-07-01 19:25:00,
2013-07-01 15:30:00,80.6,69.1,29.84,North,359,6.0,6.0,68,0.00,,,0.17,VWS V14.01,2013-07-01 19:30:00,
2013-07-01 15:35:00,80.7,69.2,29.84,ESE,123,3.0,3.0,68,0.00,,,0.17,VWS V14.01,2013-07-01 19:35:00,
2013-07-01 15:40:00,80.2,68.7,29.83,NE,51,10.5,10.5,68,0.00,,,0.17,VWS V14.01,2013-07-01 19:40:00,
2013-07-01 15:45:00,80.2,69.1,29.83,ENE,61,3.0,3.0,69,0.00,,,0.17,VWS V14.01,2013-07-01 19:45:00,
2013-07-01 15:50:00,80.3,67.9,29.83,ENE,64,6.0,6.0,66,0.00,,,0.17,VWS V14.01,2013-07-01 19:50:00,
2013-07-01 15:55:00,80.6,68.6,29.84,East,87,4.5,4.5,67,0.00,,,0.17,VWS V14.01,2013-07-01 19:55:00,
2013-07-01 16:00:00,80.8,68.8,29.84,East,82,4.5,4.5,67,0.00,,,0.17,VWS V14.01,2013-07-01 20:00:00,
2013-07-01 16:05:00,80.4,69.7,29.84,ENE,68,10.5,10.5,70,0.00,,,0.17,VWS V14.01,2013-07-01 20:05:00,
2013-07-01 16:10:00,79.9,68.8,29.83,ENE,65,7.5,7.5,69,0.00,,,0.17,VWS V14.01,2013-07-01 20:10:00,
2013-07-01 16:15:00,79.8,69.2,29.83,ENE,74,1.5,1.5,70,0.00,,,0.17,VWS V14.01,2013-07-01 20:15:00,
2013-07-01 16:20:00,79.5,69.3,29.83,ENE,57,4.5,4.5,71,0.00,,,0.17,VWS V14.01,2013-07-01 20:20:00,
2013-07-01 16:25:00,79.4,69.2,29.84,East,101,3.0,3.0,71,0.00,,,0.17,VWS V14.01,2013-07-01 20:25:00,
2013-07-01 16:30:00,78.9,68.7,29.83,East,80,4.5,4.5,71,0.00,,,0.17,VWS V14.01,2013-07-01 20:30:00,
2013-07-01 16:35:00,78.7,68.5,29.83,NE,44,6.0,6.0,71,0.00,,,0.17,VWS V14.01,2013-07-01 20:35:00,
2013-07-01 16:40:00,78.4,68.2,29.83,NNE,24,9.0,9.0,71,0.00,,,0.17,VWS V14.01,2013-07-01 20:40:00,
2013-07-01 16:45:00,78.2,68.8,29.83,ENE,77,3.0,3.0,73,0.00,,,0.17,VWS V14.01,2013-07-01 20:45:00,
2013-07-01 16:50:00,78.2,68.8,29.83,ENE,58,4.5,4.5,73,0.00,,,0.17,VWS V14.01,2013-07-01 20:50:00,
2013-07-01 16:55:00,77.8,68.1,29.84,NE,34,4.5,4.5,72,0.00,,,0.17,VWS V14.01,2013-07-01 20:55:00,
2013-07-01 17:00:00,77.6,68.7,29.84,East,92,3.0,3.0,74,0.00,,,0.17,VWS V14.01,2013-07-01 21:00:00,
2013-07-01 17:05:00,77.3,68.0,29.84,NE,54,7.5,7.5,73,0.00,,,0.17,VWS V14.01,2013-07-01 21:05:00,
2013-07-01 17:10:00,76.9,67.6,29.84,NE,52,3.0,3.0,73,0.00,,,0.17,VWS V14.01,2013-07-01 21:10:00,
2013-07-01 17:15:00,76.6,67.7,29.84,NE,47,1.5,1.5,74,0.00,,,0.17,VWS V14.01,2013-07-01 21:15:00,
2013-07-01 17:20:00,76.6,68.1,29.84,NE,52,0.0,1.5,75,0.00,,,0.17,VWS V14.01,2013-07-01 21:20:00,
2013-07-01 17:25:00,76.7,68.2,29.85,NE,46,0.0,1.5,75,0.00,,,0.17,VWS V14.01,2013-07-01 21:25:00,
2013-07-01 17:30:00,76.5,68.0,29.85,NE,46,0.0,1.5,75,0.00,,,0.17,VWS V14.01,2013-07-01 21:30:00,
2013-07-01 17:35:00,76.2,67.3,29.86,NE,51,0.0,1.5,74,0.00,,,0.17,VWS V14.01,2013-07-01 21:35:00,
2013-07-01 17:40:00,76.1,68.0,29.86,ENE,59,3.0,3.0,76,0.00,,,0.17,VWS V14.01,2013-07-01 21:40:00,
2013-07-01 17:45:00,76.1,67.6,29.86,ENE,68,1.5,1.5,75,0.00,,,0.17,VWS V14.01,2013-07-01 21:45:00,
2013-07-01 17:50:00,76.0,68.7,29.86,ENE,70,0.0,1.5,78,0.00,,,0.17,VWS V14.01,2013-07-01 21:50:00,
2013-07-01 17:55:00,75.8,69.2,29.86,ENE,70,0.0,1.5,80,0.00,,,0.17,VWS V14.01,2013-07-01 21:55:00,
2013-07-01 17:59:00,75.4,68.8,29.86,ENE,70,0.0,1.5,80,0.00,,,0.17,VWS V14.01,2013-07-01 21:59:00,
2013-07-01 18:04:00,75.1,68.9,29.86,NNE,26,1.5,1.5,81,0.00,,,0.17,VWS V14.01,2013-07-01 22:04:00,
2013-07-01 18:09:00,74.6,68.4,29.86,NE,35,1.5,1.5,81,0.00,,,0.17,VWS V14.01,2013-07-01 22:09:00,
2013-07-01 18:14:00,74.3,68.4,29.86,NE,52,1.5,1.5,82,0.00,,,0.17,VWS V14.01,2013-07-01 22:14:00,
2013-07-01 18:19:00,74.2,69.1,29.87,NE,51,0.0,1.5,84,0.00,,,0.17,VWS V14.01,2013-07-01 22:19:00,
2013-07-01 18:24:00,74.2,69.4,29.87,NE,35,0.0,1.5,85,0.00,,,0.17,VWS V14.01,2013-07-01 22:24:00,
2013-07-01 18:29:00,74.2,69.4,29.87,North,355,0.0,1.5,85,0.00,,,0.17,VWS V14.01,2013-07-01 22:29:00,
2013-07-01 18:34:00,74.1,69.3,29.87,North,356,0.0,1.5,85,0.00,,,0.17,VWS V14.01,2013-07-01 22:34:00,
2013-07-01 18:39:00,73.8,69.3,29.87,North,356,0.0,1.5,86,0.00,,,0.17,VWS V14.01,2013-07-01 22:39:00,
2013-07-01 18:44:00,73.7,69.3,29.86,North,356,0.0,1.5,86,0.01,,,0.18,VWS V14.01,2013-07-01 22:44:00,
2013-07-01 18:49:00,73.5,69.1,29.87,NNE,24,0.0,1.5,86,0.01,,,0.18,VWS V14.01,2013-07-01 22:49:00,
2013-07-01 18:54:00,73.3,69.2,29.87,ENE,78,0.0,1.5,87,0.01,,,0.18,VWS V14.01,2013-07-01 22:54:00,
2013-07-01 18:59:00,72.9,68.8,29.88,SE,136,1.5,1.5,87,0.01,,,0.18,VWS V14.01,2013-07-01 22:59:00,
2013-07-01 19:04:00,72.6,69.2,29.87,South,191,0.0,1.5,89,0.02,,,0.19,VWS V14.01,2013-07-01 23:04:00,
2013-07-01 19:09:00,72.3,68.6,29.88,SSW,192,0.0,1.5,88,0.02,,,0.19,VWS V14.01,2013-07-01 23:09:00,
2013-07-01 19:14:00,72.3,69.2,29.88,WSW,241,1.5,1.5,90,0.02,,,0.19,VWS V14.01,2013-07-01 23:14:00,
2013-07-01 19:19:00,72.4,69.3,29.90,WSW,246,7.5,7.5,90,0.02,,,0.19,VWS V14.01,2013-07-01 23:19:00,
2013-07-01 19:24:00,72.2,69.1,29.90,West,260,4.5,4.5,90,0.03,,,0.20,VWS V14.01,2013-07-01 23:24:00,
2013-07-01 19:29:00,72.0,68.9,29.91,SW,231,3.0,3.0,90,0.03,,,0.20,VWS V14.01,2013-07-01 23:29:00,
2013-07-01 19:34:00,71.9,69.1,29.90,SW,231,1.5,1.5,91,0.04,,,0.21,VWS V14.01,2013-07-01 23:34:00,
2013-07-01 19:39:00,71.7,68.9,29.90,SW,231,1.5,1.5,91,0.05,,,0.22,VWS V14.01,2013-07-01 23:39:00,
2013-07-01 19:44:00,71.6,69.2,29.89,SE,145,1.5,1.5,92,0.05,,,0.23,VWS V14.01,2013-07-01 23:44:00,
2013-07-01 19:49:00,71.4,69.0,29.88,ENE,75,3.0,3.0,92,0.07,,,0.25,VWS V14.01,2013-07-01 23:49:00,
2013-07-01 19:54:00,71.1,69.0,29.87,East,80,9.0,9.0,93,0.08,,,0.26,VWS V14.01,2013-07-01 23:54:00,
2013-07-01 19:59:00,70.8,69.0,29.86,NE,46,9.0,9.0,94,0.10,,,0.28,VWS V14.01,2013-07-01 23:59:00,
2013-07-01 20:04:00,70.7,68.9,29.85,NE,52,4.5,4.5,94,0.10,,,0.29,VWS V14.01,2013-07-02 00:04:00,
2013-07-01 20:09:00,70.6,68.8,29.85,SSE,153,12.0,12.0,94,0.11,,,0.30,VWS V14.01,2013-07-02 00:09:00,
2013-07-01 20:14:00,70.6,68.5,29.86,ESE,104,4.5,4.5,93,0.11,,,0.30,VWS V14.01,2013-07-02 00:14:00,
2013-07-01 20:19:00,70.2,67.8,29.87,SSW,209,7.5,7.5,92,0.12,,,0.31,VWS V14.01,2013-07-02 00:19:00,
2013-07-01 20:24:00,69.6,66.9,29.87,WNW,288,6.0,6.0,91,0.11,,,0.31,VWS V14.01,2013-07-02 00:24:00,
2013-07-01 20:29:00,68.9,65.8,29.87,NNE,24,3.0,3.0,90,0.11,,,0.31,VWS V14.01,2013-07-02 00:29:00,
2013-07-01 20:34:00,68.4,65.7,29.86,NE,49,3.0,3.0,91,0.11,,,0.32,VWS V14.01,2013-07-02 00:34:00,
2013-07-01 20:39:00,67.8,65.1,29.86,ENE,60,4.5,4.5,91,0.11,,,0.32,VWS V14.01,2013-07-02 00:39:00,
2013-07-01 20:44:00,67.4,64.7,29.87,East,82,1.5,1.5,91,0.09,,,0.32,VWS V14.01,2013-07-02 00:44:00,
2013-07-01 20:49:00,67.3,64.6,29.87,East,81,0.0,1.5,91,0.08,,,0.32,VWS V14.01,2013-07-02 00:49:00,
2013-07-01 20:54:00,67.2,64.8,29.87,ENE,60,0.0,1.5,92,0.06,,,0.32,VWS V14.01,2013-07-02 00:54:00,
2013-07-01 20:59:00,67.1,64.7,29.88,NNE,24,1.5,1.5,92,0.05,,,0.32,VWS V14.01,2013-07-02 00:59:00,
2013-07-01 21:04:00,66.9,64.2,29.88,NNE,19,0.0,1.5,91,0.03,,,0.32,VWS V14.01,2013-07-02 01:04:00,
2013-07-01 21:09:00,66.6,64.2,29.89,NNE,19,0.0,1.5,92,0.02,,,0.32,VWS V14.01,2013-07-02 01:09:00,
2013-07-01 21:14:00,66.4,64.0,29.90,ENE,70,0.0,1.5,92,0.02,,,0.32,VWS V14.01,2013-07-02 01:14:00,
2013-07-01 21:19:00,66.4,64.3,29.90,ESE,122,1.5,1.5,93,0.01,,,0.32,VWS V14.01,2013-07-02 01:19:00,
2013-07-01 21:24:00,66.3,64.2,29.90,NE,51,3.0,3.0,93,0.01,,,0.32,VWS V14.01,2013-07-02 01:24:00,
2013-07-01 21:29:00,66.2,64.1,29.90,East,101,0.0,1.5,93,0.01,,,0.32,VWS V14.01,2013-07-02 01:29:00,
2013-07-01 21:34:00,66.1,64.0,29.90,SSW,203,1.5,1.5,93,0.00,,,0.32,VWS V14.01,2013-07-02 01:34:00,
2013-07-01 21:39:00,65.9,64.1,29.90,SSW,203,0.0,1.5,94,0.00,,,0.32,VWS V14.01,2013-07-02 01:39:00,
2013-07-01 21:44:00,65.8,64.0,29.89,SSW,203,0.0,1.5,94,0.00,,,0.32,VWS V14.01,2013-07-02 01:44:00,
2013-07-01 21:49:00,65.6,63.8,29.89,SSW,201,0.0,1.5,94,0.00,,,0.32,VWS V14.01,2013-07-02 01:49:00,
2013-07-01 21:54:00,65.4,63.6,29.89,SSW,201,0.0,1.5,94,0.00,,,0.32,VWS V14.01,2013-07-02 01:54:00,
2013-07-01 21:59:00,65.3,63.8,29.89,SSW,201,1.5,1.5,95,0.00,,,0.32,VWS V14.01,2013-07-02 01:59:00,
2013-07-01 22:04:00,65.1,63.6,29.90,WSW,246,1.5,1.5,95,0.00,,,0.32,VWS V14.01,2013-07-02 02:04:00,
2013-07-01 22:09:00,65.2,63.7,29.90,WSW,246,0.0,1.5,95,0.00,,,0.32,VWS V14.01,2013-07-02 02:09:00,
2013-07-01 22:14:00,65.0,63.5,29.90,WSW,244,0.0,1.5,95,0.00,,,0.32,VWS V14.01,2013-07-02 02:14:00,
2013-07-01 22:19:00,65.0,63.8,29.90,WSW,244,0.0,1.5,96,0.00,,,0.32,VWS V14.01,2013-07-02 02:19:00,
2013-07-01 22:24:00,64.9,63.7,29.90,WSW,243,0.0,1.5,96,0.00,,,0.32,VWS V14.01,2013-07-02 02:24:00,
2013-07-01 22:29:00,64.9,63.7,29.90,WSW,243,0.0,1.5,96,0.00,,,0.32,VWS V14.01,2013-07-02 02:29:00,
2013-07-01 22:34:00,64.8,63.6,29.90,WSW,242,3.0,3.0,96,0.00,,,0.32,VWS V14.01,2013-07-02 02:34:00,
2013-07-01 22:39:00,64.5,63.3,29.90,East,91,1.5,1.5,96,0.00,,,0.32,VWS V14.01,2013-07-02 02:39:00,
2013-07-01 22:44:00,64.4,63.2,29.90,East,94,0.0,1.5,96,0.00,,,0.32,VWS V14.01,2013-07-02 02:44:00,
2013-07-01 22:49:00,64.3,63.1,29.91,SE,139,1.5,1.5,96,0.00,,,0.32,VWS V14.01,2013-07-02 02:49:00,
2013-07-01 22:54:00,64.2,63.0,29.91,SSE,150,0.0,1.5,96,0.00,,,0.32,VWS V14.01,2013-07-02 02:54:00,
2013-07-01 22:59:00,64.2,63.0,29.91,SSE,150,0.0,1.5,96,0.00,,,0.32,VWS V14.01,2013-07-02 02:59:00,
2013-07-01 23:04:00,64.1,62.9,29.91,SSE,150,0.0,1.5,96,0.00,,,0.32,VWS V14.01,2013-07-02 03:04:00,
2013-07-01 23:09:00,64.1,63.2,29.91,SSE,150,0.0,1.5,97,0.00,,,0.32,VWS V14.01,2013-07-02 03:09:00,
2013-07-01 23:14:00,64.1,63.2,29.91,SSE,150,0.0,1.5,97,0.00,,,0.32,VWS V14.01,2013-07-02 03:14:00,
2013-07-01 23:19:00,64.0,63.1,29.91,SSE,151,1.5,1.5,97,0.00,,,0.32,VWS V14.01,2013-07-02 03:19:00,
2013-07-01 23:24:00,63.7,62.8,29.92,SSE,151,0.0,1.5,97,0.00,,,0.32,VWS V14.01,2013-07-02 03:24:00,
2013-07-01 23:29:00,63.5,62.3,29.92,NE,51,3.0,3.0,96,0.00,,,0.32,VWS V14.01,2013-07-02 03:29:00,
2013-07-01 23:34:00,63.4,62.5,29.93,NE,52,0.0,1.5,97,0.00,,,0.32,VWS V14.01,2013-07-02 03:34:00,
2013-07-01 23:39:00,63.3,62.4,29.93,NE,49,1.5,1.5,97,0.00,,,0.32,VWS V14.01,2013-07-02 03:39:00,
2013-07-01 23:44:00,63.2,62.3,29.93,East,94,3.0,3.0,97,0.00,,,0.32,VWS V14.01,2013-07-02 03:44:00,
2013-07-01 23:49:00,63.3,62.4,29.93,ESE,113,0.0,1.5,97,0.00,,,0.32,VWS V14.01,2013-07-02 03:49:00,
2013-07-01 23:54:00,63.3,62.4,29.93,ESE,114,0.0,1.5,97,0.00,,,0.32,VWS V14.01,2013-07-02 03:54:00,
2013-07-01 23:59:00,63.2,62.3,29.93,ESE,113,0.0,1.5,97,0.00,,,0.32,VWS V14.01,2013-07-02 03:59:00,